Terminal Aerodrome Forecast
Issued by NWS

Home | Current Version | Previous Version | Text Only | Print | Product List | Glossary Off
Versions: 1 2 3 4 5 6 7 8 9 10 11 12 13 14 15 16 17 18 19 20 21 22 23 24 25 26 27 28 29 30 31 32 33 34 35 36 37 38 39 40 41 42 43 44 45 46 47 48 49

000
FTUS43 KLOT 082340
TAFGYY
TAF
KGYY 082340Z 0900/0924 29012KT 6SM -SHSN OVC018
     FM090100 31012G20KT 3SM -SHSN BR OVC018
      TEMPO 0901/0905 1SM -SHSN BR
     FM091000 32015G22KT P6SM -SHSN OVC025 PROB30 0918/0922 2SM
      -SHSN=

USA.gov is the U.S. government's official web portal to all federal, state and local government web resources and services.